sat.trackr.live / text

‹ back to catalog

STARLINK-36198

NORAD 67167 · 2025-303E

PAYLOAD ACTIVE UNKNOWN

§ Identity

Operator
Country
US
Launch date
2025-12-17
Launch site
AFETR
Launch vehicle
Mass (kg)
RCS (m²)

Purposes: comms

External: N2YO · Heavens-Above · Gunter

§ Orbital elements

Epoch: 2026-05-24T22:46:08.817024Z

Period
94.27 min
Inclination
42.9991°
Eccentricity
0.0001527
Mean motion
15.27606341 rev/d
Perigee alt
481.9 km
Apogee alt
484.0 km
Semi-major
6,861.1 km
B*
7.8367e-4
RAAN
240.4227°
Arg perigee
272.9225°
Mean anomaly
87.1451°
Rev number
2,439

§ Raw data

STARLINK-361981 67167U 25303E   26144.94871316  .00021383  00000+0  78367-3 0  99962 67167  42.9991 240.4227 0001527 272.9225  87.1451 15.27606341 24397

JSON: /api/v1/satellites/67167 · /tle

For live sub-satellite position, see the globe view (requires WebGL).

§ Visibility from observer

Set your observer location to see the next 7 days of passes ≥ 10°. The values pass through the URL so the page stays shareable.

No JS? Fill the form by hand. The geolocation button needs JavaScript.